Hourly Weather Bolshie Polyany

Today, 20 June, Sunday

Time Temperature Precipitation Wind Pressure Humidity
00:00 +19°C° 0 mm 1 mps 756 mmHg 84%
01:00 +19°C° 0 mm 1 mps 756 mmHg 85%
02:00 +18°C° 0 mm 1 mps 756 mmHg 87%
03:00 +18°C° 0 mm 1 mps 756 mmHg 88%
04:00 +19°C° 0 mm 1 mps 756 mmHg 87%
05:00 +20°C° 0 mm 1 mps 756 mmHg 85%
06:00 +18°C° 0 mm 0 mps 756 mmHg 84%
07:00 +22°C° 0 mm 1 mps 756 mmHg 80%
08:00 +23°C° 0 mm 1 mps 756 mmHg 76%
09:00 +24°C° 0 mm 1 mps 756 mmHg 72%
10:00 +25°C° 0 mm 1 mps 756 mmHg 68%
11:00 +26°C° 0 mm 1 mps 756 mmHg 65%
12:00 +27°C° 0 mm 2 mps 756 mmHg 61%
13:00 +28°C° 0 mm 1 mps 756 mmHg 60%
14:00 +28°C° 0 mm 1 mps 755 mmHg 58%
15:00 +29°C° 0 mm 1 mps 755 mmHg 57%
16:00 +29°C° 0 mm 1 mps 755 mmHg 60%
17:00 +28°C° 0 mm 1 mps 754 mmHg 64%
18:00 +28°C° 0 mm 1 mps 754 mmHg 67%
19:00 +26°C° 0 mm 1 mps 754 mmHg 72%
20:00 +25°C° 0 mm 1 mps 754 mmHg 76%
21:00 +23°C° 0 mm 1 mps 754 mmHg 81%
22:00 +22°C° 0 mm 1 mps 754 mmHg 81%
23:00 +21°C° 0 mm 1 mps 754 mmHg 81%

Tomorrow, 21 June, Monday

Time Temperature Precipitation Wind Pressure Humidity
00:00 +21°C° 0 mm 1 mps 754 mmHg 81%
01:00 +21°C° 0 mm 1 mps 754 mmHg 82%
02:00 +20°C° 0 mm 1 mps 754 mmHg 83%
03:00 +20°C° 0 mm 1 mps 754 mmHg 84%
04:00 +20°C° 0 mm 1 mps 754 mmHg 84%
05:00 +21°C° 0 mm 1 mps 754 mmHg 84%
06:00 +22°C° 0 mm 1 mps 754 mmHg 84%
07:00 +23°C° 0 mm 2 mps 755 mmHg 80%
08:00 +24°C° 0 mm 2 mps 755 mmHg 76%
09:00 +26°C° 0 mm 2 mps 755 mmHg 72%
10:00 +27°C° 0 mm 2 mps 755 mmHg 69%
11:00 +27°C° 0 mm 3 mps 755 mmHg 65%
12:00 +28°C° 0 mm 3 mps 754 mmHg 61%
13:00 +29°C° 0 mm 3 mps 754 mmHg 59%
14:00 +29°C° 0 mm 3 mps 754 mmHg 57%
15:00 +30°C° 0 mm 2 mps 754 mmHg 55%
16:00 +29°C° 0 mm 2 mps 754 mmHg 60%
17:00 +29°C° 0 mm 2 mps 754 mmHg 65%
18:00 +29°C° 0 mm 2 mps 754 mmHg 70%
19:00 +27°C° 0 mm 2 mps 754 mmHg 73%
20:00 +25°C° 0 mm 2 mps 754 mmHg 76%
21:00 +24°C° 0 mm 2 mps 754 mmHg 79%
22:00 +23°C° 0 mm 2 mps 754 mmHg 81%
23:00 +21°C° 0 mm 2 mps 754 mmHg 83%

Day after tomorrow, 22 June, Tuesday

Time Temperature Precipitation Wind Pressure Humidity
00:00 +20°C° 0 mm 2 mps 754 mmHg 85%
01:00 +21°C° 0 mm 1 mps 754 mmHg 86%
02:00 +21°C° 0 mm 1 mps 754 mmHg 87%
03:00 +20°C° 0 mm 1 mps 754 mmHg 87%
04:00 +21°C° 0 mm 1 mps 754 mmHg 86%
05:00 +22°C° 0 mm 1 mps 754 mmHg 85%
06:00 +21°C° 0 mm 2 mps 754 mmHg 84%
07:00 +24°C° 0 mm 2 mps 755 mmHg 79%
08:00 +25°C° 0 mm 2 mps 755 mmHg 73%
09:00 +27°C° 0 mm 2 mps 755 mmHg 68%
10:00 +28°C° 0 mm 2 mps 755 mmHg 64%
11:00 +29°C° 0 mm 2 mps 755 mmHg 60%
12:00 +30°C° 0 mm 2 mps 755 mmHg 56%
13:00 +30°C° 0 mm 2 mps 755 mmHg 54%
14:00 +31°C° 0 mm 2 mps 755 mmHg 52%
15:00 +31°C° 0 mm 1 mps 754 mmHg 50%
16:00 +31°C° 0 mm 1 mps 754 mmHg 54%
17:00 +31°C° 0 mm 1 mps 754 mmHg 58%
18:00 +30°C° 0 mm 1 mps 754 mmHg 63%
19:00 +28°C° 0 mm 1 mps 754 mmHg 66%
20:00 +26°C° 0 mm 1 mps 754 mmHg 70%
21:00 +24°C° 0 mm 1 mps 754 mmHg 73%
22:00 +23°C° 0 mm 1 mps 754 mmHg 74%
23:00 +23°C° 0 mm 1 mps 754 mmHg 76%

23 June, Wednesday

Time Temperature Precipitation Wind Pressure Humidity
00:00 +22°C° 0 mm 1 mps 754 mmHg 77%
01:00 +22°C° 0 mm 1 mps 754 mmHg 79%
02:00 +21°C° 0 mm 1 mps 754 mmHg 80%
03:00 +21°C° 0 mm 1 mps 755 mmHg 81%
04:00 +22°C° 0 mm 1 mps 755 mmHg 81%
05:00 +22°C° 0 mm 1 mps 755 mmHg 80%
06:00 +23°C° 0 mm 1 mps 755 mmHg 80%
07:00 +25°C° 0 mm 1 mps 755 mmHg 76%
08:00 +26°C° 0 mm 2 mps 755 mmHg 72%
09:00 +28°C° 0 mm 2 mps 755 mmHg 68%
10:00 +29°C° 0 mm 2 mps 755 mmHg 64%
11:00 +30°C° 0 mm 2 mps 755 mmHg 60%
12:00 +31°C° 0 mm 2 mps 755 mmHg 57%
13:00 +31°C° 0 mm 2 mps 755 mmHg 54%
14:00 +31°C° 0 mm 1 mps 755 mmHg 52%
15:00 +32°C° 0 mm 1 mps 755 mmHg 49%
16:00 +32°C° 0 mm 1 mps 755 mmHg 54%
17:00 +31°C° 0 mm 1 mps 754 mmHg 59%
18:00 +31°C° 0 mm 1 mps 754 mmHg 63%
19:00 +29°C° 0 mm 1 mps 754 mmHg 67%
20:00 +27°C° 0 mm 1 mps 754 mmHg 71%
21:00 +25°C° 0 mm 1 mps 754 mmHg 74%
22:00 +25°C° 0 mm 1 mps 754 mmHg 76%
23:00 +22°C° 0 mm 0 mps 754 mmHg 77%

24 June, Thursday

Time Temperature Precipitation Wind Pressure Humidity
00:00 +21°C° 0 mm 0 mps 754 mmHg 79%
01:00 +23°C° 0 mm 1 mps 754 mmHg 80%
02:00 +22°C° 0 mm 1 mps 754 mmHg 81%
03:00 +22°C° 0 mm 1 mps 754 mmHg 82%
04:00 +23°C° 0 mm 1 mps 755 mmHg 81%
05:00 +23°C° 0 mm 1 mps 755 mmHg 80%
06:00 +24°C° 0 mm 1 mps 755 mmHg 79%
07:00 +26°C° 0 mm 1 mps 755 mmHg 75%
08:00 +27°C° 0 mm 1 mps 755 mmHg 71%
09:00 +28°C° 0 mm 1 mps 754 mmHg 66%
10:00 +29°C° 0 mm 1 mps 754 mmHg 63%
11:00 +30°C° 0 mm 1 mps 754 mmHg 59%
12:00 +31°C° 0 mm 1 mps 754 mmHg 56%
13:00 +32°C° 0 mm 1 mps 754 mmHg 53%
14:00 +32°C° 0 mm 1 mps 754 mmHg 51%
15:00 +33°C° 0 mm 1 mps 754 mmHg 48%
16:00 +32°C° 0 mm 1 mps 754 mmHg 52%
17:00 +32°C° 0 mm 1 mps 753 mmHg 57%
18:00 +32°C° 0 mm 1 mps 753 mmHg 61%
19:00 +30°C° 0 mm 1 mps 753 mmHg 63%
20:00 +28°C° 0 mm 1 mps 753 mmHg 66%
21:00 +26°C° 0 mm 1 mps 752 mmHg 69%
22:00 +25°C° 0 mm 1 mps 752 mmHg 72%
23:00 +24°C° 0 mm 2 mps 752 mmHg 76%

25 June, Friday

Time Temperature Precipitation Wind Pressure Humidity
00:00 +23°C° 0 mm 2 mps 752 mmHg 79%
01:00 +23°C° 0.1 mm 1 mps 752 mmHg 80%
02:00 +23°C° 0.1 mm 1 mps 752 mmHg 81%
03:00 +22°C° 0.1 mm 1 mps 752 mmHg 83%
04:00 +23°C° 0 mm 1 mps 752 mmHg 82%
05:00 +24°C° 0 mm 1 mps 752 mmHg 81%
06:00 +23°C° 0 mm 0 mps 752 mmHg 80%
07:00 +26°C° 0 mm 1 mps 752 mmHg 76%
08:00 +27°C° 0 mm 1 mps 752 mmHg 72%
09:00 +29°C° 0 mm 2 mps 752 mmHg 68%
10:00 +29°C° 0 mm 1 mps 752 mmHg 65%
11:00 +30°C° 0 mm 1 mps 752 mmHg 61%
12:00 +31°C° 0 mm 1 mps 752 mmHg 57%
13:00 +32°C° 0 mm 1 mps 751 mmHg 55%
14:00 +32°C° 0 mm 1 mps 751 mmHg 53%
15:00 +32°C° 0 mm 1 mps 751 mmHg 50%
16:00 +32°C° 0 mm 1 mps 751 mmHg 54%
17:00 +32°C° 0 mm 1 mps 750 mmHg 57%
18:00 +32°C° 0 mm 1 mps 750 mmHg 61%
19:00 +30°C° 0 mm 1 mps 749 mmHg 64%
20:00 +28°C° 0 mm 1 mps 749 mmHg 67%
21:00 +26°C° 0 mm 1 mps 749 mmHg 71%
22:00 +26°C° 0 mm 1 mps 749 mmHg 73%
23:00 +25°C° 0 mm 1 mps 749 mmHg 74%
Show more